User: anonymous   Login
Location: Volcán Tajumulco
(15.0427°N, 91.9045°W)
Time: 07:05:54
(UTC-06:00)
Language:

CUBESAT XI-V - Orbit

View from above orbital plane
View from above orbital plane
View from above satellite
View from above satellite

Ground track
Ground track

The orbit data is extracted from the following two-line orbital elements,

1 28895U 05043F   21015.79553904  .00000115  00000-0  31073-4 0  9990
2 28895  98.0357 152.5935 0016092 335.3356  24.7075 14.63853763811676
Epoch (UTC): 15 January 2021 19:05:34
Eccentricity: 0.0016092
inclination: 98.0357°
perigee height: 669 km
apogee height: 692 km
right ascension of ascending node: 152.5935°
argument of perigee: 335.3356°
revolutions per day: 14.63853763
mean anomaly at epoch: 24.7075°
orbit number at epoch: 81167

The dashed part of the orbit path shows where the satellite is in the earth's shadow,  

DLR